Weather History for George, South Africa

Change the Weather History Date:

Saturday, October 20, 2012

  Actual Average Record
Temperature  
Mean Temperature 54 °F -  
Max Temperature 59 °F 68 °F 86 °F (2004)
Min Temperature 48 °F 52 °F 44 °F (2003)
Degree Days  
Heating Degree Days 12    
Growing Degree Days 4 (Base 50)    
Moisture  
Dew Point 51 °F    
Average Humidity 87    
Maximum Humidity 94    
Minimum Humidity 81    
Precipitation  
Precipitation 0.43 in - - ()
Sea Level Pressure  
Sea Level Pressure 30.16 in    
Wind  
Wind Speed 7 mph ()    
Max Wind Speed 16 mph    
Max Gust Speed 28 mph    
Visibility 7.1 miles    
Events Rain    
Averages and records for this station are not official NWS values.
T = Trace of Precipitation, MM = Missing Value Source: Averaged Metar Reports

Daily Weather History Graph

Daily Weather History Graph

Search for Another Location

Airport:

Trip Planner

Search our weather history database for the weather conditions in past years. The results will help you decide how hot, cold, wet, or windy it might be!

Date:

Astronomy

Oct. 20, 2012 Rise Set
Actual Time 5:42 AM SAST 6:48 PM SAST
Civil Twilight 5:16 AM SAST 7:14 PM SAST
Nautical Twilight 4:46 AM SAST 7:45 PM SAST
Astronomical Twilight 4:14 AM SAST 8:16 PM SAST
Moon 9:52 AM SAST (10/20) No Moon Set
Length of Visible Light 13h 57m
Length of Day
13h 05m
Waxing Crescent, 31% of the Moon is Illuminated
Oct 20
Waxing Crescent
Oct 22
First Quarter
Oct 29
Full
Nov 7
Last Quarter
Nov 14
New

Hourly Weather History & Observations

Time (SAST) Temp. Dew Point Humidity Pressure Visibility Wind Dir Wind Speed Gust Speed Precip Events Conditions
12:00 AM 50.0 °F 46.4 °F 87% 30.12 in 6.2 mi WNW 4.6 mph - N/A   Mostly Cloudy
1:00 AM 50.0 °F 46.4 °F 87% 30.12 in 6.2 mi WNW 4.6 mph - N/A   Mostly Cloudy
2:00 AM 50 °F 46 °F 81% 30.14 in 12 mi NW 6.9 mph - -  
2:00 AM 50.0 °F 46.4 °F 87% 30.12 in 6.2 mi NW 8.1 mph - N/A   Partly Cloudy
3:00 AM 51.8 °F 46.4 °F 82% 30.12 in - WNW 4.6 mph - N/A   Clear
4:00 AM 51.8 °F 48.2 °F 88% 30.15 in 6.2 mi NW 5.8 mph - N/A   Mostly Cloudy
5:00 AM 52 °F 48 °F 83% 30.17 in 12 mi West 4.6 mph - -   Mostly Cloudy
5:00 AM 51.8 °F 48.2 °F 88% 30.15 in 6.2 mi West 4.6 mph - N/A   Mostly Cloudy
6:00 AM 51.8 °F 48.2 °F 88% 30.18 in 6.2 mi West 6.9 mph - N/A Rain Light Rain
7:00 AM 51.8 °F 48.2 °F 88% 30.18 in 6.2 mi West 10.4 mph - N/A   Mostly Cloudy
8:00 AM 53 °F 49 °F 83% 30.21 in 12 mi WNW 8.1 mph - -   Partly Cloudy
8:00 AM 53.6 °F 50.0 °F 88% 30.18 in 6.2 mi WNW 8.1 mph - N/A   Mostly Cloudy
9:00 AM 53.6 °F 50.0 °F 88% 30.21 in 6.2 mi West 9.2 mph - N/A Rain Light Rain
10:00 AM 53.6 °F 50.0 °F 88% 30.21 in 5.6 mi WNW 10.4 mph - N/A Rain Light Rain
11:00 AM 55.4 °F 50.0 °F 82% 30.18 in 6.2 mi WNW 12.7 mph - N/A Rain Light Rain
12:00 PM 55.4 °F 51.8 °F 88% 30.18 in 3.7 mi West 10.4 mph - N/A Rain Light Rain
1:00 PM 55.4 °F 51.8 °F 88% 30.18 in 5.6 mi WNW 11.5 mph - N/A Rain Light Rain
2:00 PM 56 °F 53 °F 86% 30.17 in 19 mi NW 11.5 mph - - Rain Light Rain
2:00 PM 57.2 °F 53.6 °F 88% 30.15 in 6.2 mi WNW 11.5 mph - N/A Rain Light Rain
3:00 PM 59.0 °F 53.6 °F 82% 30.15 in 6.2 mi South 3.5 mph - N/A   Mostly Cloudy
4:00 PM 59.0 °F 53.6 °F 82% 30.15 in 6.2 mi ESE 5.8 mph - N/A Rain Light Rain
5:00 PM 57 °F 54 °F 85% 30.16 in 6 mi East 6.9 mph - - Rain Light Rain
5:00 PM 57.2 °F 53.6 °F 88% 30.15 in 6.2 mi East 6.9 mph - N/A Rain Light Rain
6:00 PM 57.2 °F 53.6 °F 88% 30.15 in 6.2 mi East 6.9 mph - N/A Rain Light Rain
7:00 PM 55.4 °F 51.8 °F 88% 30.15 in 6.2 mi ESE 8.1 mph - N/A   Mostly Cloudy
8:00 PM 56 °F 53 °F 86% 30.18 in 4 mi East 6.9 mph - - Rain Drizzle
8:00 PM 55.4 °F 53.6 °F 94% 30.15 in 5.0 mi East 6.9 mph - N/A   Drizzle
9:00 PM 55.4 °F 53.6 °F 94% 30.18 in - SE 16.1 mph 27.6 mph N/A Rain Rain
10:00 PM 55.4 °F 53.6 °F 94% 30.18 in - East 10.4 mph - N/A Rain Rain
11:00 PM 53.6 °F 51.8 °F 94% 30.15 in - East 5.8 mph - N/A Rain Rain